Content
SEND FEEDBACK

Daily
Averages
Monthly
Summary
Brazil

FLORIANOPOLIS, SANTA CATARINA


Home > South America > Brazil > Santa Catarina
Elevation: 16 feet     Latitude: 27 40S     Longitude: 048 33W

WEATHER
 
SELECT A DAY
Number of Records: 182,259;   Date Range: 6/30/96 - 7/23/14
 
SHARE

PRINT THIS DATA

[ ← Previous Day ]
WEATHER ALMANAC - FEBRUARY 17, 2013
[ Next Day → ]
[ °C ]   °F
Weather ElementAverageHighLow
Temperature81.7 °F93.2 °F (3:00 pm)75.2 °F (6:00 am)
Dewpoint73.8 °F77 °F (3:00 pm)68 °F (5:00 pm)
Humidity77.2 %94 % (6:00 am)52 % (3:00 pm)
Barometer26.59 in29.87 in (9:00 pm) (7:00 pm)
Wind Speed8.1 mph21.9 mph (8:12 pm)
Wind Gust35.7 mph (8:12 pm)
Weather ElementAverage
Visibility7.1 mi
Wind DirectionWNW (278.9 °)

Weather ElementTotal
Precipitation---
Cooling Degree Days19.2 (Base 65)
Growing Degree Days34.2 (Base 50)
Averaged from 28 records on February 17, 2013
WEATHER CONDITIONS BREAKOUT
WIND DIRECTION BREAKOUT
WEATHER BY HOUR - FEBRUARY 17, 2013
[ °C ]   °F
Local TimeTemperatureDewpointHumidityBarometerVisibilityWind DirectionWind SpeedGust SpeedPrecipitationEventsConditions
1:00 AM77.0 °F73.4 °F89 %29.80 in6.2 miNW (320°)2.3 mphMostly Cloudy
2:00 AM77.0 °F73.4 °F89 %29.80 in6.2 miWest (280°)2.3 mphMostly Cloudy
3:00 AM77.0 °F74.0 °F88 %29.77 in12.0 miNNW (340°)8.1 mphPartly Cloudy
3:00 AM77.0 °F73.4 °F89 %29.77 in6.2 miNNW (340°)8.1 mphScattered Clouds
4:00 AM77.0 °F73.4 °F89 %29.74 in6.2 miNNW (340°)5.8 mphScattered Clouds
5:00 AM77.0 °F73.4 °F89 %29.74 in6.2 miNNW (340°)8.1 mphScattered Clouds
6:00 AM75.2 °F73.4 °F94 %29.77 in6.2 miNNW (330°)10.4 mphPartly Cloudy
7:00 AM77.0 °F73.4 °F89 %29.77 in6.2 miNW (320°)6.9 mphPartly Cloudy
8:00 AM78.8 °F73.4 °F83 %29.80 inNW (310°)9.2 mphClear
9:00 AM81.0 °F74.0 °F74 %29.81 in12.0 miNW (310°)6.9 mph
9:00 AM80.6 °F73.4 °F79 %29.80 inNW (310°)6.9 mphClear
10:00 AM84.2 °F75.2 °F74 %29.80 inNW (310°)6.9 mphClear
11:00 AM86.0 °F73.4 °F66 %29.80 in6.2 miWNW (300°)6.9 mphPartly Cloudy
12:00 PM89.6 °F73.4 °F59 %29.77 in6.2 miNW (310°)5.8 mphPartly Cloudy
1:00 PM89.6 °F75.2 °F62 %29.77 in6.2 miNNW (330°)4.6 mphPartly Cloudy
2:00 PM89.6 °F75.2 °F62 %29.74 in6.2 miWNW (290°)4.6 mphPartly Cloudy
3:00 PM92.0 °F76.0 °F52 %29.73 in12.0 miSE (140°)9.2 mphScattered Clouds
3:00 PM93.2 °F77.0 °F59 %29.71 in6.2 miSE (140°)9.2 mphPartly Cloudy
4:00 PM87.8 °F75.2 °F66 %29.74 in6.2 miESE (110°)8.1 mphPartly Cloudy
5:00 PM82.4 °F68.0 °F62 %29.74 in6.2 miWSW (250°)9.2 mphPartly Cloudy
6:00 PM86.0 °F77.0 °F74 %29.74 in6.2 miWNW (290°)6.9 mphPartly Cloudy
7:00 PM82.4 °F77.0 °F84 %29.80 in6.2 miNNW (340°)15.0 mphThunderstormThunderstorm
8:00 PM82.4 °F77.0 °F84 %29.80 in6.2 miNNW (330°)8.1 mphThunderstormThunderstorm
8:12 PM78.8 °F73.4 °F83 %6.2 miSSW (210°)21.9 mph35.7 mphThunderstormThunderstorm
9:00 PM78.0 °F71.0 °F72 %29.87 in12.0 miSouth (190°)11.5 mphThunderstormThunderstorm
9:00 PM78.8 °F71.6 °F78 %6.2 miSouth (190°)11.5 mph24.2 mphThunderstormThunderstorm
10:00 PM77.0 °F71.6 °F83 %6.2 miWest (260°)8.1 mphRain-ThunderstormLight Thunderstorms and Rain
11:00 PM75.2 °F71.6 °F89 %29.83 in6.2 miWest (280°)4.6 mphMostly Cloudy
Hourly data recorded from SBFL, located miles away from Florianopolis, Santa Catarina







STORIES FROM OUR PARTNERS